| time (UTC) | temp C | wind direction | speed KPH | gust KPH | rain 1hr cm | rain 24hr cm | rain mn cm | humidity % | barometer mb |
| 20260508024555 | 5 | 0 | 0.0 | 0.0 | 0.00 | 0.23 | 0.00 | 65 | 1018.8 |
| 20260508023053 | 6 | 0 | 0.0 | 0.0 | 0.00 | 0.23 | 0.00 | 65 | 1018.8 |
| 20260508021616 | 6 | 0 | 0.0 | 0.0 | 0.00 | 0.23 | 0.00 | 65 | 1018.9 |
| 20260508020057 | 6 | 0 | 0.0 | 0.0 | 0.00 | 0.23 | 0.00 | 65 | 1018.8 |
| 20260508014554 | 6 | 0 | 0.0 | 0.0 | 0.00 | 0.46 | 0.00 | 65 | 1018.8 |
| 20260508013056 | 6 | 0 | 0.0 | 0.0 | 0.00 | 0.46 | 0.00 | 65 | 1018.7 |
| 20260508011558 | 6 | 207 | 0.0 | 3.2 | 0.00 | 0.46 | 0.00 | 65 | 1018.8 |
| 20260508010056 | 6 | 207 | 0.0 | 1.6 | 0.00 | 0.46 | 0.00 | 65 | 1018.7 |
| 20260508004601 | 6 | 0 | 0.0 | 1.6 | 0.00 | 0.58 | 0.00 | 66 | 1018.8 |
| 20260508003107 | 5 | 207 | 0.0 | 0.0 | 0.00 | 0.58 | 0.00 | 66 | 1018.7 |
| 20260508001555 | 5 | 0 | 0.0 | 0.0 | 0.00 | 0.58 | 0.00 | 67 | 1018.9 |
| 20260508000051 | 5 | 0 | 0.0 | 1.6 | 0.00 | 0.58 | 0.00 | 67 | 1019.0 |
| 20260507234551 | 5 | 207 | 0.0 | 3.2 | 0.00 | 0.71 | 0.00 | 67 | 1019.1 |
| 20260507233057 | 6 | 207 | 1.6 | 3.2 | 0.00 | 0.71 | 0.00 | 67 | 1018.9 |
| 20260507231600 | 6 | 207 | 0.0 | 3.2 | 0.00 | 0.71 | 0.00 | 68 | 1018.9 |
| 20260507230056 | 6 | 207 | 1.6 | 3.2 | 0.00 | 0.71 | 0.00 | 68 | 1018.8 |
| 20260507224601 | 6 | 0 | 0.0 | 0.0 | 0.00 | 0.94 | 0.00 | 68 | 1018.8 |
| 20260507223052 | 6 | 0 | 0.0 | 0.0 | 0.00 | 0.94 | 0.00 | 68 | 1018.7 |
| 20260507221551 | 6 | 0 | 0.0 | 0.0 | 0.00 | 0.94 | 0.00 | 68 | 1018.8 |
| 20260507220054 | 7 | 0 | 0.0 | 0.0 | 0.00 | 0.91 | 0.00 | 68 | 1018.8 |
| 20260507214558 | 7 | 0 | 0.0 | 0.0 | 0.00 | 1.09 | 0.91 | 68 | 1018.7 |
| 20260507213054 | 7 | 0 | 0.0 | 0.0 | 0.00 | 1.09 | 0.91 | 68 | 1018.7 |
| 20260507211555 | 7 | 0 | 0.0 | 0.0 | 0.00 | 1.09 | 0.91 | 68 | 1018.7 |
| 20260507210119 | 7 | 0 | 0.0 | 0.0 | 0.00 | 1.09 | 0.91 | 68 | 1018.5 |
| 20260507204602 | 7 | 0 | 0.0 | 0.0 | 0.00 | 2.06 | 0.91 | 68 | 1018.4 |
| 20260507203104 | 7 | 0 | 0.0 | 0.0 | 0.00 | 2.06 | 0.91 | 68 | 1018.4 |
| 20260507201552 | 7 | 0 | 0.0 | 0.0 | 0.00 | 2.06 | 0.91 | 68 | 1018.4 |
| 20260507200105 | 7 | 0 | 0.0 | 0.0 | 0.00 | 2.06 | 0.91 | 68 | 1018.3 |
| 20260507194555 | 7 | 0 | 0.0 | 0.0 | 0.00 | 2.87 | 0.91 | 69 | 1018.1 |
| 20260507193118 | 7 | 0 | 0.0 | 0.0 | 0.00 | 2.87 | 0.91 | 69 | 1018.1 |
| 20260507191603 | 8 | 0 | 0.0 | 0.0 | 0.00 | 2.87 | 0.91 | 69 | 1018.0 |
| 20260507190100 | 8 | 0 | 0.0 | 0.0 | 0.00 | 2.87 | 0.91 | 69 | 1018.0 |
| 20260507184603 | 8 | 0 | 0.0 | 0.0 | 0.00 | 2.95 | 0.91 | 69 | 1017.8 |
| 20260507183107 | 8 | 0 | 0.0 | 0.0 | 0.00 | 2.95 | 0.91 | 69 | 1017.7 |
| 20260507181556 | 8 | 0 | 0.0 | 0.0 | 0.00 | 2.95 | 0.91 | 69 | 1017.7 |
| 20260507180056 | 8 | 0 | 0.0 | 0.0 | 0.00 | 2.95 | 0.91 | 69 | 1017.6 |
| 20260507174557 | 8 | 0 | 0.0 | 0.0 | 0.00 | 3.05 | 0.91 | 69 | 1017.5 |
| 20260507173132 | 8 | 0 | 0.0 | 0.0 | 0.00 | 3.05 | 0.91 | 69 | 1017.5 |
| 20260507171553 | 8 | 0 | 0.0 | 0.0 | 0.00 | 3.05 | 0.91 | 69 | 1017.3 |
| 20260507170055 | 8 | 0 | 0.0 | 0.0 | 0.00 | 3.05 | 0.91 | 68 | 1017.4 |
| 20260507164600 | 8 | 0 | 0.0 | 3.2 | 0.00 | 3.05 | 0.91 | 68 | 1017.2 |
| 20260507163053 | 8 | 0 | 0.0 | 3.2 | 0.00 | 3.05 | 0.91 | 68 | 1017.2 |
| 20260507161608 | 8 | 0 | 0.0 | 0.0 | 0.00 | 3.05 | 0.91 | 68 | 1017.1 |
| 20260507160104 | 8 | 207 | 0.0 | 0.0 | 0.00 | 3.05 | 0.91 | 68 | 1017.0 |
| 20260507154555 | 8 | 0 | 0.0 | 4.8 | 0.00 | 3.17 | 0.91 | 68 | 1017.1 |
| 20260507153053 | 8 | 0 | 0.0 | 0.0 | 0.00 | 3.17 | 0.91 | 68 | 1016.8 |
| 20260507151553 | 8 | 0 | 0.0 | 0.0 | 0.00 | 3.17 | 0.91 | 68 | 1016.8 |
| 20260507150054 | 7 | 0 | 0.0 | 3.2 | 0.00 | 3.17 | 0.91 | 68 | 1016.8 |
| 20260507144601 | 7 | 0 | 1.6 | 8.0 | 0.00 | 3.48 | 0.91 | 68 | 1016.8 |
| 20260507143059 | 8 | 182 | 1.6 | 9.7 | 0.00 | 3.48 | 0.91 | 68 | 1016.6 |
| 20260507141610 | 8 | 179 | 3.2 | 9.7 | 0.00 | 3.48 | 0.91 | 67 | 1016.6 |
| 20260507140109 | 8 | 177 | 1.6 | 8.0 | 0.00 | 3.48 | 0.91 | 67 | 1016.6 |
| 20260507134603 | 7 | 207 | 0.0 | 16.1 | 0.00 | 3.73 | 0.91 | 68 | 1016.6 |
| 20260507133056 | 8 | 205 | 3.2 | 12.9 | 0.00 | 3.73 | 0.91 | 68 | 1016.4 |
| 20260507131552 | 8 | 202 | 3.2 | 8.0 | 0.00 | 3.73 | 0.91 | 68 | 1016.3 |
| 20260507130056 | 8 | 212 | 4.8 | 11.3 | 0.00 | 3.73 | 0.91 | 67 | 1016.2 |
| 20260507124555 | 8 | 213 | 1.6 | 8.0 | 0.00 | 3.73 | 0.91 | 65 | 1016.1 |
| 20260507123055 | 8 | 212 | 1.6 | 6.4 | 0.00 | 3.73 | 0.91 | 62 | 1016.0 |
| 20260507121558 | 8 | 208 | 3.2 | 12.9 | 0.00 | 3.73 | 0.91 | 62 | 1015.7 |
| 20260507120054 | 7 | 205 | 3.2 | 16.1 | 0.00 | 3.73 | 0.91 | 62 | 1015.8 |
| 20260507114559 | 8 | 216 | 6.4 | 17.7 | 0.00 | 3.84 | 0.91 | 61 | 1015.7 |
| 20260507113058 | 7 | 215 | 4.8 | 11.3 | 0.00 | 3.84 | 0.91 | 61 | 1015.6 |
| 20260507111602 | 7 | 215 | 4.8 | 11.3 | 0.00 | 3.84 | 0.91 | 61 | 1015.5 |
| 20260507110059 | 7 | 232 | 4.8 | 9.7 | 0.00 | 3.84 | 0.91 | 61 | 1015.6 |
| 20260507104555 | 7 | 235 | 1.6 | 8.0 | 0.00 | 3.89 | 0.91 | 61 | 1015.4 |
| 20260507103054 | 7 | 236 | 0.0 | 9.7 | 0.00 | 3.89 | 0.91 | 62 | 1015.4 |
| 20260507101625 | 7 | 230 | 3.2 | 9.7 | 0.00 | 3.89 | 0.91 | 62 | 1015.1 |
| 20260507100052 | 7 | 212 | 3.2 | 12.9 | 0.00 | 3.89 | 0.91 | 62 | 1015.0 |
| 20260507094555 | 7 | 225 | 4.8 | 11.3 | 0.00 | 3.94 | 0.91 | 62 | 1014.7 |
| 20260507093057 | 7 | 244 | 4.8 | 14.5 | 0.00 | 3.94 | 0.91 | 62 | 1014.6 |
| 20260507091557 | 7 | 256 | 3.2 | 11.3 | 0.00 | 3.94 | 0.91 | 62 | 1014.4 |
| 20260507090111 | 7 | 230 | 4.8 | 12.9 | 0.00 | 3.94 | 0.91 | 62 | 1014.2 |
| 20260507084555 | 7 | 246 | 3.2 | 12.9 | 0.00 | 3.96 | 0.91 | 62 | 1014.1 |
| 20260507083056 | 7 | 225 | 8.0 | 14.5 | 0.00 | 3.96 | 0.91 | 62 | 1013.9 |
| 20260507081552 | 7 | 202 | 4.8 | 14.5 | 0.00 | 3.96 | 0.91 | 62 | 1013.8 |
| 20260507080055 | 7 | 192 | 4.8 | 14.5 | 0.00 | 3.96 | 0.91 | 62 | 1013.7 |
| 20260507074557 | 7 | 237 | 3.2 | 14.5 | 0.00 | 4.09 | 0.91 | 62 | 1013.5 |
| 20260507073052 | 7 | 240 | 1.6 | 14.5 | 0.00 | 4.09 | 0.91 | 62 | 1013.4 |
| 20260507071556 | 7 | 217 | 3.2 | 14.5 | 0.00 | 4.09 | 0.91 | 62 | 1013.1 |
| 20260507070056 | 7 | 221 | 4.8 | 12.9 | 0.00 | 4.09 | 0.91 | 62 | 1013.0 |
| 20260507064607 | 7 | 223 | 3.2 | 9.7 | 0.00 | 4.34 | 0.91 | 62 | 1013.0 |
| 20260507063055 | 7 | 225 | 3.2 | 8.0 | 0.00 | 4.34 | 0.91 | 62 | 1012.7 |
| 20260507061553 | 7 | 204 | 3.2 | 12.9 | 0.00 | 4.34 | 0.91 | 62 | 1012.5 |
| 20260507060058 | 7 | 230 | 1.6 | 12.9 | 0.00 | 4.34 | 0.91 | 62 | 1012.3 |
| 20260507054606 | 7 | 221 | 3.2 | 16.1 | 0.00 | 4.78 | 0.91 | 62 | 1012.1 |
| 20260507053055 | 7 | 234 | 3.2 | 14.5 | 0.00 | 4.78 | 0.91 | 62 | 1012.0 |
| 20260507051555 | 7 | 232 | 1.6 | 16.1 | 0.00 | 4.75 | 0.89 | 62 | 1011.8 |
| 20260507050056 | 7 | 231 | 3.2 | 14.5 | 0.00 | 4.75 | 0.89 | 62 | 1011.5 |
| 20260507044554 | 7 | 228 | 6.4 | 16.1 | 0.00 | 5.54 | 0.89 | 62 | 1011.4 |
| 20260507043059 | 7 | 239 | 8.0 | 17.7 | 0.00 | 5.54 | 0.89 | 62 | 1011.2 |
| 20260507041603 | 7 | 252 | 3.2 | 14.5 | 0.00 | 5.54 | 0.89 | 62 | 1011.0 |
| 20260507040058 | 7 | 250 | 4.8 | 14.5 | 0.03 | 5.54 | 0.89 | 62 | 1011.0 |
| 20260507034556 | 7 | 246 | 3.2 | 14.5 | 0.08 | 6.25 | 0.89 | 61 | 1011.0 |
| 20260507033054 | 7 | 232 | 3.2 | 19.3 | 0.08 | 6.22 | 0.86 | 62 | 1010.9 |
| 20260507031558 | 7 | 246 | 4.8 | 19.3 | 0.08 | 6.22 | 0.86 | 61 | 1010.9 |